Waarnemingen

Advertentie
Mijn weer
Ronneby, Zweden (2664): temperatuur & dauwpunt: 15.02.2018 02:00:00 - 21.02.2018 02:00:00 (CET)Ronneby, Zweden (2664): windsnelheid & windstoten: 15.02.2018 02:00:00 - 21.02.2018 02:00:00 (CET)Ronneby, Zweden (2664): windrichting: 15.02.2018 02:00:00 - 21.02.2018 02:00:00 (CET)Ronneby, Zweden (2664): luchtdruk: 15.02.2018 02:00:00 - 21.02.2018 02:00:00 (CET)Ronneby, Zweden (2664): zicht: 15.02.2018 02:00:00 - 21.02.2018 02:00:00 (CET)Ronneby, Zweden (2664): neerslag: 15.02.2018 02:00:00 - 21.02.2018 02:00:00 (CET)
Datum & Tijd tt [°C] td [°C] ff [km/u] ff [kn] fx [km/u] fx [kn] dd ppp [hPa] vv [km] rr [mm]
21.02.2018 02:00:00 -2,6 -4,1 8 4 18 10 NNO 1027,9 10 0,0
21.02.2018 01:00:00 -2,3 -3,9 15 8 22 12 NO 1028,0 10 0,0
21.02.2018 00:00:00 -2,0 -3,1 11 6 18 10 NO 1028,0 10 0,0
20.02.2018 23:00:00 -1,8 -2,8 5 3 11 6 NNO 1027,9 10 0,0
20.02.2018 22:00:00 -1,6 -2,7 8 4 11 6 NO 1027,8 10 0,0
20.02.2018 21:00:00 -1,4 -2,4 8 4 14 8 NO 1027,8 10 0,0
20.02.2018 20:00:00 -1,3 -2,1 5 3 14 8 NO 1027,7 10 0,0
20.02.2018 19:00:00 -1,1 -2,5 9 5 18 10 ONO 1027,3 10 0,0
20.02.2018 18:00:00 -0,9 -2,5 11 6 18 10 ONO 1027,0 10 0,0
20.02.2018 17:00:00 -0,6 -1,9 13 7 18 10 ONO 1026,6 10 0,0
20.02.2018 16:00:00 -0,3 -1,7 15 8 22 12 ONO 1026,4 10 0,0
20.02.2018 15:00:00 -0,1 -1,8 16 9 25 14 ONO 1026,4 10 0,0
20.02.2018 14:00:00 0,1 -1,7 16 9 25 14 O 1026,4 10 0,0
20.02.2018 13:00:00 0,3 -1,3 16 9 29 16 ONO 1026,3 10 -
20.02.2018 12:00:00 0,1 -0,8 16 9 25 14 ONO 1026,4 10 0,0
20.02.2018 11:00:00 0,0 -0,7 15 8 22 12 NO 1026,2 10 0,0
20.02.2018 10:00:00 -0,2 -0,6 15 8 22 12 ONO 1025,9 10 0,0
20.02.2018 09:00:00 -0,5 -0,8 13 7 22 12 NO 1025,6 10 0,0
20.02.2018 08:00:00 -0,5 -0,6 11 6 18 10 ONO 1025,4 10 0,0
20.02.2018 07:00:00 -0,3 -0,3 8 4 14 8 ONO 1025,1 6 0,0
20.02.2018 06:00:00 -0,7 -0,8 8 4 14 8 NO 1025,0 2,4 0,0
20.02.2018 05:00:00 -1,5 -1,6 8 4 11 6 NNO 1025,0 0,2 0,0
20.02.2018 04:00:00 -2,3 -2,4 9 5 14 8 N 1025,0 0,3 0,0
20.02.2018 03:00:00 -2,5 -2,6 13 7 14 8 NNO 1025,1 3,6 0,0
20.02.2018 02:00:00 -2,9 -3,0 9 5 11 6 NNO 1025,0 2,7 0,0
20.02.2018 01:00:00 -2,5 -2,6 9 5 14 8 NNO 1024,8 0,7 0,0
20.02.2018 00:00:00 -3,7 -4,0 8 4 11 6 NNO 1024,6 2,8 0,0
19.02.2018 23:00:00 -3,3 -3,6 9 5 11 6 NNO 1024,5 6 0,0
19.02.2018 22:00:00 -3,6 -3,7 9 5 11 6 NNO 1024,2 7 0,0
19.02.2018 21:00:00 -2,8 -3,1 4 2 7 4 NO 1024,0 10 0,0
19.02.2018 20:00:00 0,1 -0,8 5 3 7 4 OZO 1023,8 10 0,0
19.02.2018 19:00:00 0,8 -0,2 5 3 7 4 OZO 1023,5 10 0,0
19.02.2018 18:00:00 1,1 0,2 5 3 7 4 OZO 1023,2 10 0,0
19.02.2018 17:00:00 1,8 0,0 4 2 11 6 ZO 1022,7 10 0,0
19.02.2018 16:00:00 2,1 0,3 9 5 14 8 Z 1022,4 10 0,0
19.02.2018 15:00:00 2,2 0,4 9 5 14 8 Z 1022,2 10 0,0
19.02.2018 14:00:00 2,5 0,6 11 6 18 10 ZZW 1022,0 10 0,0
19.02.2018 13:00:00 2,4 0,5 11 6 14 8 Z 1021,9 10 0,0
19.02.2018 12:00:00 2,4 0,9 5 3 11 6 ZZW 1022,2 10 0,0
19.02.2018 11:00:00 1,8 0,8 5 3 14 8 ZZW 1022,1 9 0,0
19.02.2018 10:00:00 1,5 0,6 5 3 11 6 Z 1022,0 9 0,0
19.02.2018 09:00:00 -0,9 -1,0 4 2 4 2 ZZO 1022,0 8 0,0
19.02.2018 08:00:00 -1,1 -1,3 2 1 7 4 ZO 1021,9 8 0,0
19.02.2018 07:00:00 -0,3 -0,4 4 2 4 2 Z 1021,8 8 0,0
19.02.2018 06:00:00 -0,3 -0,6 4 2 7 4 Z 1021,8 7 0,0
19.02.2018 05:00:00 -0,1 -0,5 4 2 7 4 ZZW 1022,0 10 0,0
19.02.2018 04:00:00 0,2 -0,7 5 3 7 4 ZZW 1022,4 10 0,0
19.02.2018 03:00:00 0,2 -0,9 5 3 11 6 ZZW 1022,8 10 0,0
19.02.2018 02:00:00 0,2 -0,9 5 3 11 6 ZZW 1023,5 10 0,0
19.02.2018 01:00:00 0,1 -1,3 5 3 14 8 ZZW 1024,0 10 0,0
19.02.2018 00:00:00 0,2 -1,2 5 3 11 6 ZW 1024,2 10 0,0
18.02.2018 23:00:00 0,7 -0,8 5 3 7 4 ZW 1024,6 10 0,0
18.02.2018 22:00:00 0,9 -0,7 5 3 14 8 ZW 1024,8 10 0,0
18.02.2018 21:00:00 0,9 -0,4 9 5 14 8 ZW 1025,0 7 0,0
18.02.2018 20:00:00 0,7 -0,9 5 3 7 4 ZZW 1025,5 10 0,0
18.02.2018 19:00:00 0,7 -1,5 5 3 11 6 ZW 1025,8 10 0,0
18.02.2018 18:00:00 0,5 -0,5 4 2 11 6 ZZW 1026,0 10 0,0
18.02.2018 17:00:00 0,8 -0,4 2 1 4 2 Z 1026,2 10 0,0
18.02.2018 16:00:00 0,9 -0,6 4 2 7 4 - 1026,4 10 0,0
18.02.2018 15:00:00 0,8 -0,5 5 3 7 4 WZW 1026,6 10 0,0
18.02.2018 14:00:00 0,5 -0,6 4 2 7 4 - 1026,8 10 0,0
18.02.2018 13:00:00 0,4 -0,7 5 3 7 4 WZW 1027,3 10 0,0
18.02.2018 12:00:00 0,2 -0,9 4 2 7 4 - 1027,4 10 0,0
18.02.2018 11:00:00 -0,3 -1,0 2 1 4 2 - 1027,4 10 0,0
18.02.2018 10:00:00 -0,7 -1,3 0 0 7 4 N 1027,3 10 0,0
18.02.2018 09:00:00 -1,2 -1,5 4 2 7 4 W 1027,4 10 0,0
18.02.2018 08:00:00 -1,3 -1,4 5 3 7 4 W 1027,3 10 0,0
18.02.2018 07:00:00 -1,4 -1,5 2 1 11 6 - 1027,0 10 0,0
18.02.2018 06:00:00 -1,4 -1,5 9 5 11 6 W 1026,9 6 0,0
18.02.2018 05:00:00 -1,9 -2,0 0 0 7 4 N 1026,7 1,6 0,0
18.02.2018 04:00:00 -1,5 -1,6 2 1 7 4 WZW 1026,7 2,6 0,0
18.02.2018 03:00:00 -1,3 -1,4 2 1 7 4 - 1026,8 2,6 0,0
18.02.2018 02:00:00 -0,6 -0,7 5 3 7 4 W 1026,7 4,5 0,0
18.02.2018 01:00:00 -0,6 -0,7 0 0 4 2 N 1026,4 2,4 0,0
18.02.2018 00:00:00 -0,3 -0,4 2 1 4 2 - 1026,3 2,6 0,0
17.02.2018 23:00:00 -0,3 -0,4 4 2 4 2 W 1026,0 2,6 0,0
17.02.2018 22:00:00 -0,4 -0,5 0 0 4 2 N 1025,7 2,6 0,0
17.02.2018 21:00:00 -0,4 -0,5 2 1 4 2 - 1025,3 2,8 0,0
17.02.2018 20:00:00 -0,4 -0,5 5 3 7 4 N 1025,2 4,7 0,0
17.02.2018 19:00:00 0,1 0,0 0 0 7 4 N 1024,8 3,4 0,0
17.02.2018 18:00:00 0,4 0,0 5 3 14 8 NO 1024,4 4,9 0,0
17.02.2018 17:00:00 1,1 0,1 9 5 14 8 NNO 1024,0 10 0,0
17.02.2018 16:00:00 1,8 0,6 5 3 11 6 N 1023,7 10 0,0
17.02.2018 15:00:00 2,1 0,6 4 2 7 4 NW 1023,2 10 0,0
17.02.2018 14:00:00 2,1 0,8 4 2 7 4 - 1023,2 10 0,0
17.02.2018 13:00:00 1,7 0,2 9 5 18 10 NNO 1023,2 10 0,0
17.02.2018 12:00:00 1,3 0,1 9 5 14 8 N 1023,3 10 0,0
17.02.2018 11:00:00 0,8 0,2 8 4 14 8 N 1022,8 10 0,0
17.02.2018 10:00:00 0,6 0,0 8 4 14 8 NNW 1022,6 10 0,0
17.02.2018 09:00:00 0,4 -0,2 8 4 14 8 NW 1022,2 10 0,0
17.02.2018 08:00:00 -0,3 -0,6 5 3 14 8 WNW 1021,9 10 0,0
17.02.2018 07:00:00 0,2 -0,1 8 4 14 8 NW 1021,5 10 0,0
17.02.2018 06:00:00 0,3 -0,3 8 4 14 8 WNW 1021,3 10 0,0
17.02.2018 05:00:00 0,3 -0,1 9 5 14 8 WNW 1021,2 10 0,0
17.02.2018 04:00:00 0,3 0,0 8 4 14 8 W 1020,9 10 0,0
17.02.2018 03:00:00 0,4 0,1 8 4 14 8 WNW 1020,3 10 0,0
17.02.2018 02:00:00 0,5 0,2 9 5 18 10 WNW 1019,9 10 0,0
17.02.2018 01:00:00 0,5 0,1 8 4 14 8 WNW 1019,4 10 0,0
17.02.2018 00:00:00 0,1 -0,2 5 3 11 6 W 1018,9 10 0,0
16.02.2018 23:00:00 0,1 -0,2 5 3 14 8 WNW 1018,3 10 0,0
16.02.2018 22:00:00 0,3 0,2 5 3 14 8 WNW 1017,8 10 0,0
16.02.2018 21:00:00 0,3 0,2 5 3 11 6 W 1017,2 10 0,0
16.02.2018 20:00:00 0,0 -0,1 4 2 4 2 - 1016,5 7 0,0
16.02.2018 19:00:00 0,1 0,0 4 2 4 2 - 1016,0 6 0,2
16.02.2018 18:00:00 0,0 -0,1 4 2 4 2 O 1015,5 2,0 0,6
16.02.2018 17:00:00 0,1 0,0 4 2 14 8 ZZO 1015,3 1,4 1,0
16.02.2018 16:00:00 1,6 1,2 8 4 14 8 ZZW 1015,5 5 1,0
16.02.2018 15:00:00 2,2 1,6 8 4 14 8 Z 1015,8 10 0,0
16.02.2018 14:00:00 1,9 1,3 8 4 18 10 WZW 1015,9 10 0,0
16.02.2018 13:00:00 1,6 1,0 9 5 18 10 WZW 1015,8 8 0,0
16.02.2018 12:00:00 1,4 1,3 5 3 11 6 WZW 1015,6 6 0,0
16.02.2018 11:00:00 1,0 0,9 8 4 11 6 WZW 1015,2 3,0 0,0
16.02.2018 10:00:00 0,8 0,8 8 4 11 6 WZW 1014,8 2,0 0,0
16.02.2018 09:00:00 0,3 0,3 2 1 4 2 - 1014,3 1,5 0,0
16.02.2018 08:00:00 0,2 0,2 0 0 7 4 N 1013,9 2,0 0,0
16.02.2018 07:00:00 0,3 0,3 5 3 14 8 ZO 1013,6 3,0 0,0
16.02.2018 06:00:00 0,1 0,0 8 4 14 8 Z 1013,8 2,8 0,0
16.02.2018 05:00:00 -0,1 -0,2 9 5 18 10 Z 1013,8 2,0 0,7
16.02.2018 04:00:00 -0,1 -0,2 13 7 25 14 Z 1013,9 2,3 0,5
16.02.2018 03:00:00 0,1 -0,3 13 7 25 14 Z 1014,2 3,5 0,3
16.02.2018 02:00:00 0,9 -1,0 16 9 32 18 ZZO 1014,5 7 0,0
16.02.2018 01:00:00 0,9 -1,3 16 9 32 18 ZZO 1014,9 10 0,0
16.02.2018 00:00:00 0,9 -1,5 18 10 32 18 Z 1015,8 10 0,0
15.02.2018 23:00:00 0,6 -2,0 18 10 36 19 Z 1016,2 10 0,0
15.02.2018 22:00:00 0,6 -2,0 18 10 36 19 ZZO 1016,6 10 0,0
15.02.2018 21:00:00 0,7 -2,2 16 9 32 18 Z 1017,4 10 0,0
15.02.2018 20:00:00 1,0 -1,6 22 12 32 18 ZZO 1018,0 10 0,0
15.02.2018 19:00:00 0,9 -1,7 16 9 29 16 ZZO 1018,7 10 0,0
15.02.2018 18:00:00 0,8 -2,3 18 10 29 16 ZZO 1019,0 10 0,0
15.02.2018 17:00:00 0,8 -2,4 15 8 25 14 ZZO 1019,6 10 0,0
15.02.2018 16:00:00 0,9 -3,0 16 9 29 16 ZZO 1020,2 10 0,0
15.02.2018 15:00:00 0,8 -3,5 18 10 36 19 ZZO 1020,9 10 0,0
15.02.2018 14:00:00 1,0 -3,1 22 12 36 19 ZZO 1021,4 10 0,0
15.02.2018 13:00:00 1,4 -2,4 26 14 40 21 Z 1022,2 10 0,0
15.02.2018 12:00:00 1,3 -1,3 22 12 36 19 Z 1022,7 10 0,0
15.02.2018 11:00:00 1,3 -0,9 21 11 36 19 ZZO 1023,1 10 0,0
15.02.2018 10:00:00 1,0 -1,2 15 8 25 14 ZZO 1023,2 10 0,0
15.02.2018 09:00:00 0,3 -1,1 8 4 11 6 ZO 1023,5 10 0,0
15.02.2018 08:00:00 -1,1 -2,5 9 5 14 8 ZO 1023,6 10 0,0
15.02.2018 07:00:00 0,2 -1,6 8 4 14 8 ZO 1023,7 10 0,0
15.02.2018 06:00:00 1,0 -2,0 9 5 - - ZZO - 10 -
15.02.2018 05:00:00 0,0 -2,1 4 2 7 4 - 1024,0 10 0,0
15.02.2018 04:00:00 0,2 -2,3 5 3 14 8 ZO 1024,2 10 0,0
15.02.2018 03:00:00 -0,1 -2,5 8 4 14 8 Z 1024,4 10 0,0
15.02.2018 02:00:00 -0,2 -2,6 9 5 11 6 ZZO 1024,7 10 0,0

tt = temperatuur
td = dauwpunt
ff = windsnelheid
fx = windstoten
dd = windrichting
ppp = luchtdruk
vv = zicht
rr = neerslag

Weerstations in de omgeving